[[{"header":{"parameterUnit":"m.s-1","parameterCategory":1,"la1":30.2991,"la2":30.254,"lo1":-89.0895,"lo2":-89.0444,"dy":0.0017,"dx":0.0017,"nx":28,"ny":28,"refTime":"2024-10-21T03:00:00:Z","depth":0,"parameterNumber":2,"parameterNumberName":"U-component_of_WINDS"},"data":[0,0,0,0,0,0,0,0,0,0,0,0,0,0,0,0,0,0,0,0,0,0,0,0,0,0,0,0,0,0,0,0,0,0,0,0,0,0,0,0,0,0,0,0,0,0,0,0,0,0,0,0,0,0,0,0,0,0,-2.69,-2.6901,0,-2.6942,-2.6942,-2.6943,-2.6895,-2.6893,-2.6891,-2.6889,-2.6932,-2.6935,-2.6937,0,0,0,0,0,0,0,0,0,0,0,0,0,-2.6781,-2.6783,-2.69,-2.6901,-2.6901,-2.6942,-2.6942,-2.6943,-2.6895,-2.6893,-2.6891,-2.6888,-2.6931,-2.6934,-2.6938,0,0,0,0,0,0,0,0,0,0,0,0,0,-2.6828,-2.6784,-2.69,-2.6882,-2.6881,-2.6942,-2.6942,-2.6943,-2.6895,-2.6893,-2.689,-2.6887,-2.693,-2.6934,-2.6938,-2.7018,0,0,-2.6951,-2.6953,0,0,0,0,0,0,0,0,-2.6826,-2.6833,-2.6884,-2.6884,-2.6882,-2.691,-2.6916,-2.6968,-2.6896,-2.689,-2.6889,-2.6886,-2.6927,-2.6931,-2.6945,-2.702,-2.7022,-2.6951,-2.6954,-2.6956,-2.6957,0,0,0,0,0,0,0,-2.6822,-2.6831,-2.6917,-2.6885,-2.6884,-2.6872,-2.6876,-2.6925,-2.6923,-2.689,-2.6887,-2.6892,-2.6926,-2.6941,-2.6945,-2.7023,-2.6951,-2.6955,-2.6958,-2.6959,-2.7167,-2.717,0,0,0,0,0,0,-2.6821,-2.6828,-2.6915,-2.6918,-2.6847,-2.6877,-2.6881,-2.6904,-2.6922,-2.6923,-2.6895,-2.689,-2.6935,-2.6941,-2.6947,-2.7043,-2.6956,-2.696,-2.6962,-2.7164,-2.7168,-2.7171,0,0,0,0,0,0,-2.6819,-2.6829,-2.6914,-2.6872,-2.6882,-2.6882,-2.6908,-2.6906,-2.6921,-2.6926,-2.6925,-2.6911,-2.6933,-2.6941,-2.7001,-2.7044,-2.6962,-2.6965,-2.7161,-2.7165,-2.717,-2.7236,0,0,0,0,0,0,-2.6816,-2.6829,-2.6859,-2.6873,-2.6884,-2.6967,-2.6911,-2.6909,-2.6929,-2.6923,-2.694,-2.6941,-2.6932,-2.6995,-2.7005,-2.7048,-2.6969,-2.7157,-2.7163,-2.7168,-2.723,-2.7242,-2.7252,0,0,0,0,0,-2.6811,-2.6876,-2.6861,-2.6872,-2.6922,-2.697,-2.6976,-2.6964,-2.6932,-2.6963,-2.6966,-2.694,-2.7037,-2.7002,-2.7013,-2.7058,-2.7154,-2.7161,-2.7168,-2.7225,-2.7239,-2.7252,0,0,0,0,0,0,-2.6866,-2.6877,-2.6861,-2.6931,-2.695,-2.6962,-2.7,-2.698,-2.7008,-2.7002,-2.6986,-2.699,-2.7055,-2.7062,-2.7022,-2.7137,-2.7091,-2.71,-2.713,-2.7144,-2.7155,-2.7153,-2.6972,0,0,0,0,0,-2.6886,-2.6924,-2.6932,-2.6993,-2.7003,-2.7,-2.702,-2.701,-2.7028,-2.7036,-2.7043,-2.7063,-2.7098,-2.7121,-2.7153,-2.723,-2.7234,-2.7266,-2.7278,-2.7287,-2.7296,-2.7338,-2.7353,-2.7193,-2.7193,-2.7193,0,0,-2.6929,-2.6939,-2.6964,-2.7005,-2.7018,-2.7058,-2.7007,-2.7051,-2.7081,-2.7043,-2.7101,-2.7107,-2.7127,-2.7197,-2.7227,-2.7204,-2.734,-2.7295,-2.7303,-2.7306,-2.7347,-2.7362,-2.7375,-2.7198,-2.7197,-2.7196,0,0,-2.7026,-2.7038,-2.7091,-2.7106,-2.7126,-2.7124,-2.7137,-2.7152,-2.7155,-2.7212,-2.7185,-2.722,-2.728,-2.7296,-2.7312,-2.7418,-2.7396,-2.7428,-2.7488,-2.753,-2.7542,-2.7554,-2.7593,-2.7607,-2.7437,-2.7437,-2.7437,0,-2.7077,-2.7135,-2.7121,-2.7168,-2.7187,-2.7154,-2.7209,-2.7223,-2.7254,-2.7268,-2.7242,-2.7317,-2.7329,-2.7402,-2.7428,-2.7442,-2.7457,-2.7427,-2.7542,-2.7553,-2.7563,-2.76,-2.7615,-2.7441,-2.744,-2.744,-2.744,0,-2.7197,-2.7238,-2.7279,-2.7309,-2.7333,-2.7383,-2.7377,-2.7402,-2.739,-2.739,-2.745,-2.7463,-2.7498,-2.7514,-2.7502,-2.7587,-2.7572,-2.7544,-2.7497,-2.7582,-2.7617,-2.7631,-2.7447,-2.7445,-2.7444,-2.7443,0,0,-2.733,-2.7353,-2.7368,-2.7383,-2.7404,-2.7435,-2.7484,-2.7519,-2.7542,-2.7564,-2.7605,-2.7657,-2.7632,-2.765,-2.764,-2.7676,-2.7761,-2.7644,-2.7644,-2.7667,-2.7857,-2.7879,-2.7895,-2.7746,-2.7749,-2.7751,-2.7856,0,-2.743,-2.7515,-2.7504,-2.7586,-2.7625,-2.7595,-2.7638,-2.7656,-2.7658,-2.7691,-2.7693,-2.7731,-2.7693,-2.7705,-2.7739,-2.7743,-2.7799,-2.7735,-2.7786,-2.7788,-2.7783,-2.7913,-2.7936,-2.8035,-2.7869,-2.7871,-2.7873,0,-2.7557,-2.7584,-2.7671,-2.7687,-2.7703,-2.7741,-2.7773,-2.7805,-2.7825,-2.7824,-2.7845,-2.7828,-2.7878,-2.783,-2.7899,-2.7856,-2.7876,-2.7881,-2.7884,-2.789,-2.7836,-2.7924,-2.8066,-2.8081,-2.7894,-2.7892,-2.789,0,-2.7648,-2.7706,-2.7766,-2.7778,-2.7798,-2.7827,-2.7836,-2.7854,-2.7875,-2.7903,-2.7917,-2.795,-2.7968,-2.7994,-2.7987,-2.7952,-2.8058,-2.8009,-2.806,-2.806,-2.8085,-2.8084,-2.8234,-2.8095,-2.8095,-2.8095,-2.8094,0,-2.7761,-2.7815,-2.7807,-2.7844,-2.7904,-2.7891,-2.7951,-2.7957,-2.7973,-2.801,-2.7986,-2.8022,-2.801,-2.8045,-2.804,-2.8099,-2.8107,-2.8108,-2.8107,-2.8111,-2.8112,-2.8125,-2.8119,-2.8099,-2.8098,-2.8097,-2.8096,0,-2.7873,-2.787,-2.7933,-2.7947,-2.7952,-2.7996,-2.8008,-2.8043,-2.8043,-2.8091,-2.8101,-2.8102,-2.8143,-2.8138,-2.8183,-2.8179,-2.8254,-2.8243,-2.8247,-2.8245,-2.8297,-2.8293,-2.8462,-2.8484,-2.833,-2.8332,-2.8333,0,-2.7946,-2.7987,-2.8006,-2.803,-2.8042,-2.808,-2.8102,-2.8091,-2.8115,-2.8142,-2.8174,-2.8213,-2.8243,-2.831,-2.8314,-2.8349,-2.834,-2.8397,-2.8345,-2.8349,-2.8343,-2.8341,-2.8346,-2.8408,-2.8409,-2.8411,-2.8412,0,-2.8077,-2.8073,-2.8106,-2.814,-2.8167,-2.8193,-2.8216,-2.8237,-2.8228,-2.8257,-2.8298,-2.8322,-2.8369,-2.8408,-2.8441,-2.8451,-2.8431,-2.8428,-2.8442,-2.8448,-2.845,-2.8451,-2.8277,-2.8425,-2.8423,-2.8422,-2.8422,-2.8421,-2.8172,-2.8208,-2.8228,-2.8266,-2.8282,-2.8305,-2.8339,-2.8343,-2.8378,-2.8415,-2.8406,-2.8454,-2.8473,-2.8516,-2.853,-2.8567,-2.8546,-2.8566,-2.8571,-2.8577,-2.8584,-2.8443,-2.8573,-2.8572,-2.8572,-2.8572,-2.8571,0,-2.8303,-2.8314,-2.835,-2.8383,-2.8414,-2.8391,-2.8416,-2.8443,-2.8485,-2.8505,-2.8536,-2.8584,-2.8623,-2.863,-2.8667,-2.8695,-2.8687,-2.8706,-2.8704,-2.8707,-2.8599,-2.8584,-2.8712,-2.8712,-2.8712,-2.8712,-2.8712,-2.8712,-2.8375,-2.8435,-2.8434,-2.8502,-2.8513,-2.8559,-2.8575,-2.8596,-2.8613,-2.8668,-2.87,-2.8704,-2.872,-2.8758,-2.8792,-2.8793,-2.8809,-2.8831,-2.8829,-2.8728,-2.8714,-2.8701,-2.8687,-2.8834,-2.8834,-2.8934,-2.8935,-2.8936]},{"header":{"parameterUnit":"m.s-1","parameterCategory":1,"la1":30.2991,"la2":30.254,"lo1":-89.0895,"lo2":-89.0444,"dy":0.0017,"dx":0.0017,"nx":28,"ny":28,"refTime":"2024-10-21T03:00:00:Z","depth":0,"parameterNumber":3,"parameterNumberName":"V-component_of_WINDS"},"data":[0,0,0,0,0,0,0,0,0,0,0,0,0,0,0,0,0,0,0,0,0,0,0,0,0,0,0,0,0,0,0,0,0,0,0,0,0,0,0,0,0,0,0,0,0,0,0,0,0,0,0,0,0,0,0,0,0,0,-1.4676,-1.4676,0,-1.4677,-1.4677,-1.4677,-1.464,-1.4639,-1.4638,-1.4637,-1.4637,-1.4638,-1.4639,0,0,0,0,0,0,0,0,0,0,0,0,0,-1.4643,-1.4644,-1.4676,-1.4676,-1.4676,-1.4677,-1.4677,-1.4677,-1.464,-1.4639,-1.4638,-1.4636,-1.4637,-1.4638,-1.4639,0,0,0,0,0,0,0,0,0,0,0,0,0,-1.4652,-1.4645,-1.4676,-1.4658,-1.4656,-1.4677,-1.4677,-1.4677,-1.464,-1.4639,-1.4637,-1.4636,-1.4637,-1.4638,-1.4639,-1.4677,0,0,-1.4644,-1.4644,0,0,0,0,0,0,0,0,-1.4652,-1.4653,-1.4661,-1.4659,-1.4658,-1.4657,-1.4665,-1.4677,-1.4641,-1.4646,-1.4637,-1.4635,-1.4645,-1.4646,-1.4649,-1.4677,-1.4677,-1.4644,-1.4645,-1.4645,-1.4646,0,0,0,0,0,0,0,-1.4651,-1.4653,-1.4676,-1.4661,-1.4659,-1.465,-1.4649,-1.4667,-1.4654,-1.4646,-1.4643,-1.4644,-1.4644,-1.4648,-1.4649,-1.4677,-1.4644,-1.4645,-1.4646,-1.4646,-1.4736,-1.4738,0,0,0,0,0,0,-1.4653,-1.4653,-1.4676,-1.4676,-1.4651,-1.4651,-1.4651,-1.4658,-1.4654,-1.4651,-1.4645,-1.4642,-1.4646,-1.4647,-1.4648,-1.4692,-1.4645,-1.4646,-1.4647,-1.4735,-1.4736,-1.4738,0,0,0,0,0,0,-1.4653,-1.4656,-1.4676,-1.4664,-1.4666,-1.4654,-1.4662,-1.4659,-1.4663,-1.4653,-1.465,-1.4651,-1.4645,-1.4647,-1.467,-1.4692,-1.4647,-1.4648,-1.4733,-1.4735,-1.4737,-1.478,0,0,0,0,0,0,-1.4652,-1.4656,-1.467,-1.4665,-1.4667,-1.4699,-1.4664,-1.466,-1.4665,-1.4662,-1.4658,-1.4656,-1.4644,-1.4668,-1.4672,-1.4693,-1.4649,-1.4731,-1.4734,-1.4737,-1.4777,-1.4784,-1.479,0,0,0,0,0,-1.4651,-1.4682,-1.4671,-1.4674,-1.4685,-1.47,-1.4701,-1.4686,-1.4667,-1.4682,-1.4675,-1.4656,-1.4689,-1.4671,-1.4674,-1.4696,-1.4729,-1.4733,-1.4736,-1.4774,-1.4783,-1.479,0,0,0,0,0,0,-1.4691,-1.4681,-1.4669,-1.4699,-1.4701,-1.4694,-1.4711,-1.4696,-1.4702,-1.4698,-1.468,-1.4679,-1.4706,-1.4703,-1.4684,-1.4733,-1.4706,-1.471,-1.4733,-1.4741,-1.4747,-1.4748,-1.4651,0,0,0,0,0,-1.4703,-1.4716,-1.4707,-1.4735,-1.4737,-1.4724,-1.473,-1.4718,-1.4719,-1.4719,-1.4714,-1.4716,-1.4726,-1.4733,-1.4742,-1.4776,-1.4775,-1.4793,-1.4799,-1.4805,-1.4809,-1.4826,-1.4834,-1.475,-1.475,-1.475,0,0,-1.4729,-1.4725,-1.4735,-1.4743,-1.4743,-1.4757,-1.4725,-1.4741,-1.4751,-1.4722,-1.4744,-1.474,-1.474,-1.4769,-1.4782,-1.4768,-1.4832,-1.4809,-1.4813,-1.4815,-1.4831,-1.4839,-1.4846,-1.4752,-1.4752,-1.4751,0,0,-1.4783,-1.4782,-1.4805,-1.4805,-1.4805,-1.4796,-1.4802,-1.4797,-1.4793,-1.4815,-1.4793,-1.4805,-1.4823,-1.4824,-1.4827,-1.4881,-1.4864,-1.4884,-1.4918,-1.4935,-1.4942,-1.4948,-1.4967,-1.4974,-1.4888,-1.4888,-1.4888,0,-1.4815,-1.4836,-1.4819,-1.4836,-1.4841,-1.4814,-1.4837,-1.4838,-1.4841,-1.4845,-1.4829,-1.4851,-1.485,-1.4878,-1.4891,-1.4894,-1.49,-1.4885,-1.4942,-1.4948,-1.4953,-1.4971,-1.4979,-1.4891,-1.4891,-1.489,-1.489,0,-1.4875,-1.489,-1.4908,-1.4911,-1.4918,-1.4938,-1.4924,-1.4932,-1.492,-1.4912,-1.4935,-1.4932,-1.4939,-1.4945,-1.4933,-1.4972,-1.4964,-1.4946,-1.4918,-1.4964,-1.4981,-1.4988,-1.4894,-1.4894,-1.4893,-1.4892,0,0,-1.4956,-1.4948,-1.4956,-1.4957,-1.4954,-1.4965,-1.4984,-1.4991,-1.4998,-1.5001,-1.5016,-1.5032,-1.5015,-1.5019,-1.5006,-1.5022,-1.5064,-1.5002,-1.5001,-1.5014,-1.5107,-1.5121,-1.5129,-1.5053,-1.5054,-1.5055,-1.5107,0,-1.5008,-1.504,-1.5025,-1.5059,-1.5072,-1.5046,-1.5063,-1.5063,-1.5057,-1.5066,-1.5059,-1.5071,-1.5048,-1.5049,-1.5063,-1.5056,-1.5083,-1.5052,-1.5067,-1.5068,-1.5068,-1.5138,-1.5153,-1.5202,-1.5113,-1.5115,-1.5115,0,-1.5074,-1.5079,-1.5114,-1.5109,-1.5114,-1.5129,-1.5134,-1.5144,-1.5143,-1.5138,-1.5141,-1.5125,-1.5143,-1.5116,-1.514,-1.512,-1.5125,-1.5122,-1.5124,-1.5125,-1.5095,-1.5141,-1.5217,-1.5225,-1.5125,-1.5125,-1.5124,0,-1.513,-1.5145,-1.5168,-1.5169,-1.5164,-1.5175,-1.5173,-1.5171,-1.5176,-1.5181,-1.5184,-1.5191,-1.5194,-1.52,-1.5186,-1.5168,-1.5213,-1.5184,-1.5209,-1.5209,-1.522,-1.5219,-1.5298,-1.5222,-1.5222,-1.5222,-1.5222,0,-1.519,-1.5213,-1.5192,-1.5207,-1.5231,-1.5213,-1.5237,-1.5233,-1.5231,-1.5244,-1.5222,-1.5234,-1.5215,-1.5226,-1.5215,-1.5237,-1.5239,-1.5235,-1.5232,-1.5237,-1.5238,-1.5241,-1.5237,-1.5224,-1.5224,-1.5223,-1.5223,0,-1.5256,-1.5244,-1.5267,-1.5259,-1.5258,-1.5276,-1.5269,-1.5282,-1.5274,-1.529,-1.5293,-1.528,-1.5291,-1.5278,-1.5288,-1.5281,-1.5311,-1.5302,-1.5311,-1.5309,-1.5334,-1.5332,-1.5417,-1.5428,-1.5346,-1.5346,-1.5347,0,-1.5296,-1.5313,-1.5307,-1.5313,-1.5313,-1.5324,-1.5329,-1.5312,-1.5318,-1.5318,-1.5331,-1.534,-1.5347,-1.5366,-1.5357,-1.5365,-1.5357,-1.5386,-1.5358,-1.5363,-1.5358,-1.5357,-1.5359,-1.5392,-1.5393,-1.5394,-1.5395,0,-1.5368,-1.5361,-1.5369,-1.5375,-1.5382,-1.5386,-1.5388,-1.5395,-1.5377,-1.5385,-1.5396,-1.5401,-1.5411,-1.542,-1.5425,-1.5423,-1.5406,-1.5404,-1.541,-1.5415,-1.542,-1.5418,-1.5327,-1.5402,-1.5401,-1.5401,-1.54,-1.54,-1.5422,-1.5436,-1.5433,-1.5443,-1.5443,-1.5445,-1.5457,-1.545,-1.5459,-1.5465,-1.5454,-1.5468,-1.5467,-1.5472,-1.5472,-1.5482,-1.547,-1.5478,-1.5481,-1.5483,-1.5487,-1.5418,-1.5483,-1.5483,-1.5483,-1.5482,-1.5482,0,-1.5493,-1.549,-1.5499,-1.5503,-1.5511,-1.5493,-1.5495,-1.5503,-1.5515,-1.5515,-1.5521,-1.5534,-1.5543,-1.5535,-1.5542,-1.5552,-1.5545,-1.5555,-1.5554,-1.5554,-1.5498,-1.5492,-1.5561,-1.5561,-1.5561,-1.5561,-1.5561,-1.5561,-1.5531,-1.5553,-1.5545,-1.5567,-1.5563,-1.5577,-1.5579,-1.5581,-1.5581,-1.5596,-1.5603,-1.5598,-1.5594,-1.5601,-1.5609,-1.5606,-1.561,-1.5623,-1.5618,-1.5566,-1.5558,-1.5551,-1.5545,-1.5624,-1.5624,-1.5673,-1.5673,-1.5674]}]]